ASIASAT 9 (42942 NORAD) Tracking and Keplerian Element Data

This shows tracking and keplerian element data for the satellite.

Feedback or suggestion? Click here.




ElementValue
Catalog42942
NameASIASAT 9
Epoch Orbit419
Epoch Day322.89910655
Epoch Year2018
RAAN283.5567
Inclination0.02
Eccentricity0.000216
Argument of Perigee311.2378
Mean Anonmoly268.9045
Mean Motion1.00270795
Decay Rate-3.51E-06
L11 42942U 17057A 18322.89910655 -.00000351 00000-0 00000-0 0 9990
L22 42942 0.0200 283.5567 0002160 311.2378 268.9045 1.00270795 4194

Live tracking and technical data element details for ASIASAT 9 (NORAD 42942). ASIASAT 9 can be tracked NOW for your location showing map with azimuth and elevation plus other details from your city location.

Track the satellite on the map from your city or location and see movement details for azimuth, elevation, latitude, longitude, range, height, and movement on the map or in text.







IsCatalogInMostPopularTable: catalog: 42942, numindb: 156
Update: records affected: 1



GetName: 42942 ASIASAT 9

Hit Count: updated at: Mon, 19 Nov 2018 23:41:11 GMT